This demonstration page uses our WeatherBlox Daily Observations layout. Learn more.

Left ArrowRight Arrow

Hourly Observations for May 25, 2015

Temp ( °F °C ) Dew Point ( °F °C ) Humidity (%) Winds ( mph kmh ) Pressure ( in mb ) Visibility ( mi km ) Precip ( " mm )
12:53 am 00:53 Clear 73 22.8 54 12.2 51 51 WSW 6 9 29.82 1010 10 16 0.00 0.00
1:53 am 01:53 Clear 72 22.2 52 11.1 50 50 SSW 6 9 29.83 1010 10 16 0.00 0.00
2:53 am 02:53 Clear 69 20.6 50 10 51 51 S 8 13 29.84 1011 10 16 0.00 0.00
3:53 am 03:53 Clear 67 19.4 50 10 55 55 SSW 6 9 29.85 1011 10 16 0.00 0.00
4:53 am 04:53 Clear 65 18.3 50 10 59 59 SSW 3 6 29.86 1011 10 16 0.00 0.00
5:53 am 05:53 Sunny 63 17.2 50 10 63 63 S 3 6 29.87 1012 10 16 0.00 0.00
6:53 am 06:53 Sunny 64 17.8 51 10.6 63 63 SSW 6 9 29.88 1012 10 16 0.00 0.00
7:53 am 07:53 Sunny 64 17.8 51 10.6 63 63 S 6 9 29.89 1012 10 16 0.00 0.00
8:53 am 08:53 Sunny 67 19.4 51 10.6 57 57 Calm 29.89 1012 10 16 0.00 0.00
9:53 am 09:53 Sunny 71 21.7 52 11.1 51 51 S 5 7 29.88 1012 10 16 0.00 0.00
10:53 am 10:53 Sunny 74 23.3 52 11.1 46 46 Calm 29.87 1012 10 16 0.00 0.00
11:53 am 11:53 Sunny 78 25.6 52 11.1 40 40 Calm 29.86 1011 10 16 0.00 0.00
12:53 pm 12:53 Sunny 82 27.8 49 9.4 32 32 SW 8 13 29.84 1011 10 16 0.00 0.00
1:53 pm 13:53 Sunny 84 28.9 49 9.4 30 30 SW 8 13 29.82 1010 10 16 0.00 0.00
2:53 pm 14:53 Sunny 86 30 48 8.9 27 27 S 12 19 29.79 1009 10 16 0.00 0.00
3:53 pm 15:53 Sunny 87 30.6 49 9.4 27 27 SSE 16 26 29.78 1008 10 16 0.00 0.00
4:53 pm 16:53 Mostly Sunny 88 31.1 47 8.3 24 24 S 13 20 29.78 1009 10 16 0.00 0.00
5:53 pm 17:53 Sunny 83 28.3 45 7.2 26 26 S 9 15 29.78 1009 10 16 0.00 0.00
6:18 pm 18:18 Sunny with Nearby Thunderstorms 82 28 46 8 28 28 S 14 22 29.80 1009 10 16 0.00 0.00
6:33 pm 18:33 Sunny 82 27.8 47 8.3 29 29 S 10 17 29.80 1009 10 16 0.00 0.00
6:53 pm 18:53 Partly Cloudy 82 27.8 47 8.3 29 29 SSE 8 13 29.79 1009 10 16 0.00 0.00
7:53 pm 19:53 Sunny 82 27.8 52 11.1 35 35 S 10 17 29.79 1009 10 16 0.00 0.00
8:53 pm 20:53 Mostly Cloudy 79 26.1 53 11.7 41 41 SSE 8 13 29.81 1009 10 16 0.00 0.00
9:53 pm 21:53 Mostly Cloudy 77 25 53 11.7 43 43 E 5 7 29.83 1010 10 16 0.00 0.00
10:53 pm 22:53 Mostly Cloudy 75 23.9 52 11.1 45 45 S 5 7 29.85 1011 10 16 0.00 0.00
11:53 pm 23:53 Clear 75 23.9 51 10.6 43 43 SW 7 11 29.85 1011 10 16 0.00 0.00

Powered by AerisWeather